ニート-リニア彗星

472P/NEAT-LINEAR (2024)

English version
Home page
Updated on February 7, 2025

---------------------------------------------------------------------

・ プロフィール

符号 472P/2023 RL75
検出日 2023年9月9日
検出光度 21.7等
検出者 E. Schwab (Calar Alto)

・ 写真集

・ 軌道要素

Epoch 2024 Oct. 17.0 TT = JDT 2460600.5
T 2024 July 15.13410 TT                                 Rudenko
q   3.3892648            (2000.0)            P               Q
n   0.04507353     Peri.  218.91284     +0.42962332     -0.89925694
a   7.8196680      Node   205.95371     +0.86833113     +0.43640001
e   0.5665718      Incl.   10.82897     +0.24784037     +0.02986616
P  21.9
>From 565 observations 2002 Sept. 15-2024 Sept. 1, mean residual 0".7.

・ 星図

・ 光度変化

        m1 = -7.5 + 5 logΔ + 39 log r(t - 117)

---------------------------------------------------------------------

軌道要素はM.P.E.C. 2024-R10に掲載されたものです。
星図はステラナビゲータ Ver.11 (アストロアーツ) で作成したものです。
光度グラフはComet for Windowsで作成したものです。

---------------------------------------------------------------------

Copyright(C) Seiichi Yoshida (comet@aerith.net). All rights reserved.